Wind_Speed
31 31 32 32 34 36 36 36 36 38 41 42 47 51 54 54 49 42 36 38 43 46 46 46 49 51 55 58 61 62 63 63 63 63 65 66 69 74 79 81 86 87 87 85
31 31 32 33 32 33 32 33 35 36 41 45 48 51 52 48 38 31 38 41 41 42 45 48 51 54 57 58 59 63 67 67 68 67 67 68 69 68 70 74 79 85 89 89
33 33 32 31 31 29 32 33 36 38 41 47 51 51 44 33 29 33 35 38 41 43 43 45 49 55 57 56 59 56 57 64 70 71 69 68 70 68 69 68 69 73 83 89
34 31 30 30 29 31 33 35 37 40 43 48 53 54 34 28 30 36 37 41 41 43 45 50 51 55 57 52 48 50 52 54 58 64 72 71 69 71 69 74 71 68 70 82
31 29 30 30 30 31 34 36 36 41 43 47 48 45 27 28 35 37 41 42 39 41 45 48 51 56 54 49 50 49 52 55 57 59 66 74 72 69 68 68 71 71 72 73
30 29 30 30 29 32 35 36 37 41 44 47 46 41 25 31 33 36 39 39 40 39 44 48 49 53 48 50 53 50 46 45 49 53 56 67 74 71 68 66 65 69 68 70
28 28 28 28 29 32 35 37 38 42 46 49 46 36 27 31 31 33 37 43 45 45 46 48 46 49 44 47 42 40 38 37 39 43 45 48 62 71 68 63 63 64 69 68
28 27 28 30 31 33 36 36 38 43 46 48 42 27 25 31 32 34 38 44 46 45 43 45 41 45 42 40 38 34 31 30 32 32 29 32 42 56 66 64 59 58 60 67
29 28 29 31 32 33 36 36 39 42 45 49 45 24 22 33 34 35 40 43 45 44 43 44 42 41 38 36 31 31 27 24 22 16 13 19 28 38 51 59 57 56 54 60
27 29 27 30 32 33 34 35 39 41 45 48 47 20 25 32 36 38 42 43 45 46 45 43 43 37 33 32 26 26 21 13 9 6 12 17 20 30 37 48 53 51 50 56
28 28 29 31 32 32 33 33 37 38 42 44 47 18 26 30 35 39 44 45 45 50 46 44 43 40 31 29 26 21 17 13 8 7 10 16 22 24 32 38 43 45 50 53
28 30 31 32 31 31 31 32 34 36 40 40 44 25 27 29 33 37 44 45 46 48 46 44 44 43 38 27 24 22 16 9 7 8 10 16 20 24 27 31 37 42 45 43
30 31 34 31 27 30 30 31 34 34 37 36 43 30 26 27 31 38 43 46 44 46 44 42 43 46 42 32 24 20 15 13 7 9 11 15 16 18 22 30 35 37 37 37
31 31 32 27 29 28 31 32 33 32 36 37 32 27 18 26 30 37 42 46 42 45 44 43 40 43 42 36 29 19 14 10 10 9 9 11 13 15 19 23 27 29 30 31
34 32 32 28 30 30 32 28 33 31 34 36 33 24 20 24 28 34 38 42 42 41 40 40 38 39 40 37 32 30 24 10 7 9 9 8 11 15 15 20 23 25 26 27
35 35 34 29 32 33 29 26 31 29 30 34 34 26 21 22 25 31 35 36 40 41 34 35 35 34 34 36 36 30 28 24 7 5 5 8 10 11 14 16 21 23 23 25
34 34 35 32 31 32 29 27 29 27 28 31 30 30 22 19 22 27 32 32 34 39 33 32 32 33 30 33 30 28 27 24 18 15 5 4 7 12 16 18 20 21 23 26
34 34 34 33 32 30 27 24 30 27 26 29 27 27 27 20 20 23 28 30 29 33 36 29 30 31 30 30 28 31 29 25 21 19 16 13 9 12 18 22 23 24 24 25
31 33 33 33 30 28 22 20 28 31 21 27 26 25 26 26 18 19 24 28 25 26 30 29 25 26 29 30 30 29 32 30 24 23 19 17 15 13 16 18 17 18 18 20
32 33 32 31 32 31 26 27 27 31 22 24 25 24 23 25 21 16 20 25 23 22 23 25 24 21 22 26 27 24 27 29 25 26 27 26 24 22 20 16 19 19 16 19
30 31 32 33 36 32 32 33 33 30 29 24 22 26 23 24 25 15 16 21 21 20 18 19 22 22 20 20 21 27 30 32 33 28 28 29 27 29 24 24 22 15 23 32
30 34 33 36 37 36 35 34 33 32 30 25 22 23 22 22 22 16 15 18 20 16 14 10 15 20 22 19 18 22 26 28 30 29 30 28 25 27 34 33 26 25 26 23
31 30 37 37 34 35 36 33 34 34 34 26 22 23 21 20 21 20 15 17 19 14 9 6 7 11 18 23 23 20 26 33 26 27 25 26 26 28 29 26 25 23 22 22
29 32 36 38 26 36 35 34 34 42 43 25 23 24 24 21 21 22 18 17 16 11 6 4 6 11 16 20 23 28 30 31 32 35 35 36 37 34 33 33 30 24 21 18
25 27 30 32 32 37 32 35 28 22 13 18 24 24 25 24 21 22 21 16 14 9 4 3 6 11 14 18 22 26 28 28 27 29 30 29 28 26 26 26 25 23 22 19
19 21 26 32 29 35 31 27 21 16 18 24 25 27 27 25 23 20 24 16 12 8 7 9 11 12 18 20 20 20 20 20 20 21 21 20 20 20 20 18 17 15 13 11
Wind_Direction
301 299 299 298 299 300 301 302 302 302 305 309 311 313 313 310 306 305 306 301 302 303 302 300 299 297 294 289 283 274 263 257 254 253 250 248 246 243 240 236 234 233 235 237
301 300 302 302 303 304 303 304 303 304 310 314 315 316 315 311 308 309 306 305 304 305 306 302 296 291 292 293 286 276 270 265 259 256 251 248 245 243 241 238 234 233 232 233
304 305 304 303 305 305 306 308 308 309 313 317 318 318 315 307 308 307 310 312 312 306 311 309 303 295 291 288 282 278 271 263 256 255 253 247 243 241 239 236 235 233 231 231
303 303 304 307 305 308 309 309 311 316 320 322 322 321 314 310 312 320 319 315 312 320 320 320 310 303 301 292 284 280 277 274 267 256 247 246 242 238 236 236 235 233 233 232
301 301 306 305 306 309 312 311 312 318 322 322 323 319 316 321 326 323 320 320 315 320 325 330 322 317 309 297 291 284 279 273 269 262 252 241 239 238 237 235 235 234 233 233
296 298 302 306 308 310 316 313 314 318 321 324 329 324 323 330 330 326 322 320 323 325 330 329 330 324 313 307 301 292 286 277 271 267 259 245 233 232 233 235 234 231 232 233
295 299 303 305 306 313 316 313 315 320 325 328 332 325 328 332 330 325 324 331 331 330 329 330 332 329 318 315 306 301 295 287 278 271 262 252 234 228 226 227 230 231 229 231
296 297 301 305 306 312 315 315 320 323 324 326 332 325 328 331 332 331 334 333 333 330 333 335 334 334 326 322 316 310 305 297 289 282 269 250 230 230 225 223 226 229 230 231
297 297 304 305 307 312 315 315 318 321 323 326 334 331 326 336 333 339 340 333 333 334 337 339 340 340 332 325 324 323 319 316 303 282 234 220 220 223 227 226 225 228 233 231
297 301 305 305 306 310 313 315 318 322 325 329 334 340 329 338 339 342 339 340 335 340 339 344 347 338 336 329 326 332 325 321 308 251 208 215 219 218 218 222 224 226 229 229
302 305 308 309 306 308 313 315 315 319 324 330 331 350 334 342 342 340 340 343 342 343 341 342 351 344 341 330 323 315 321 306 283 234 223 211 219 215 211 217 221 223 224 227
304 306 309 307 300 305 311 310 312 317 324 331 331 343 327 341 341 339 340 344 347 346 344 345 352 351 348 342 332 324 306 304 245 233 223 224 214 210 205 212 218 220 220 224
303 305 307 305 298 304 308 310 310 315 319 330 331 332 323 335 341 339 344 343 350 346 347 348 353 356 359 353 347 331 315 287 265 243 230 227 214 202 201 207 209 211 212 217
299 304 305 304 298 302 307 309 307 312 317 329 330 330 315 330 340 342 344 342 353 350 350 353 355 358 358 360 351 348 329 305 278 258 247 233 221 212 201 202 206 207 209 212
300 302 303 299 295 300 304 308 302 310 315 324 336 325 316 333 339 342 344 344 355 356 351 355 357 3 7 10 11 11 12 324 312 269 253 240 221 211 209 206 202 207 210 209
300 302 301 299 294 298 303 305 297 305 309 317 331 340 310 329 333 340 343 345 353 359 358 357 2 8 13 15 16 13 8 24 5 263 250 234 225 206 200 199 198 201 201 205
299 298 300 302 292 296 304 294 289 297 303 309 325 336 323 320 328 338 341 344 349 357 360 3 9 15 11 10 26 21 25 22 42 63 116 179 214 201 192 196 199 196 199 189
296 296 298 300 294 294 301 293 285 291 299 303 315 330 336 316 320 334 337 340 349 355 4 6 9 10 14 20 24 35 35 40 41 57 69 92 85 202 192 186 184 188 185 197
295 294 295 296 290 291 313 297 282 286 292 297 307 320 329 333 310 324 332 337 345 352 357 8 11 15 16 30 39 42 44 49 47 51 51 76 83 150 180 177 187 184 195 212
292 293 293 292 291 290 307 307 287 282 285 286 298 304 320 323 323 311 323 332 335 346 357 13 13 17 24 25 36 45 41 57 58 63 65 80 96 96 117 149 149 156 152 157
294 294 295 292 288 289 294 299 303 287 282 280 285 296 305 318 326 297 312 323 330 337 356 15 34 31 35 41 35 44 50 56 63 72 68 81 82 85 101 134 139 139 115 139
293 294 297 291 291 296 296 294 290 286 283 273 279 287 296 308 316 298 296 311 326 333 349 11 39 52 46 50 50 46 47 53 65 65 70 76 83 77 85 92 96 92 102 110
289 296 292 297 299 294 291 287 279 284 290 270 271 274 280 299 311 313 275 297 320 324 343 11 40 55 68 66 67 66 65 74 76 76 75 76 83 87 86 91 97 94 102 114
293 298 298 295 296 287 286 295 290 285 285 261 266 272 276 282 302 310 260 283 310 308 316 80 67 75 79 80 74 75 73 70 72 72 72 74 76 77 74 74 78 81 80 82
302 295 292 301 293 288 299 298 291 281 264 256 266 276 277 270 286 300 250 267 296 287 236 143 121 104 97 95 92 92 90 85 79 78 79 79 76 76 78 77 74 71 69 66
298 292 292 290 292 294 313 298 290 290 272 270 277 277 276 266 277 276 240 253 280 249 191 159 139 125 116 109 102 98 97 95 90 87 83 79 75 73 69 65 61 59 56 49
Height
5718 5715 5711 5708 5705 5701 5697 5693 5689 5684 5678 5674 5665 5657 5647 5640 5632 5625 5620 5615 5610 5605 5601 5595 5590 5585 5580 5575 5570 5568 5569 5570 5571 5573 5576 5580 5584 5591 5600 5610 5620 5629 5637 5646
5711 5707 5703 5699 5696 5693 5689 5685 5681 5676 5668 5661 5655 5646 5636 5627 5622 5618 5612 5606 5601 5595 5589 5583 5576 5569 5562 5555 5548 5544 5545 5547 5549 5551 5555 5559 5564 5572 5579 5588 5598 5607 5616 5626
5703 5699 5695 5692 5689 5686 5681 5677 5672 5667 5660 5650 5643 5638 5627 5619 5615 5610 5604 5597 5589 5583 5576 5567 5560 5552 5543 5534 5525 5520 5518 5519 5522 5525 5531 5537 5545 5553 5561 5570 5578 5587 5594 5604
5695 5692 5689 5685 5682 5679 5675 5670 5665 5658 5650 5642 5630 5623 5619 5612 5607 5600 5594 5587 5579 5569 5561 5552 5543 5533 5522 5514 5508 5503 5499 5497 5496 5498 5504 5513 5522 5532 5542 5550 5559 5568 5575 5581
5689 5685 5682 5678 5675 5671 5667 5661 5656 5650 5642 5635 5626 5615 5609 5604 5598 5591 5585 5576 5567 5558 5549 5539 5528 5516 5504 5496 5492 5486 5480 5476 5473 5473 5476 5485 5498 5511 5519 5530 5539 5550 5556 5565
5681 5678 5675 5671 5667 5663 5659 5654 5648 5642 5634 5627 5616 5607 5605 5597 5591 5584 5578 5569 5559 5548 5538 5528 5515 5503 5491 5481 5473 5465 5460 5456 5453 5452 5453 5459 5475 5489 5499 5510 5522 5531 5542 5551
5674 5670 5667 5663 5660 5655 5651 5646 5640 5634 5626 5618 5609 5602 5597 5591 5585 5579 5571 5559 5549 5539 5530 5518 5506 5493 5481 5470 5459 5452 5446 5441 5437 5435 5436 5440 5453 5467 5482 5493 5504 5516 5525 5535
5666 5664 5660 5656 5652 5649 5644 5639 5633 5625 5619 5612 5607 5597 5592 5586 5579 5571 5562 5553 5543 5533 5522 5509 5498 5486 5474 5463 5452 5444 5436 5431 5426 5423 5424 5427 5437 5451 5465 5478 5491 5502 5512 5523
5658 5656 5653 5648 5645 5642 5637 5631 5626 5619 5613 5604 5599 5593 5587 5578 5573 5565 5556 5549 5538 5526 5513 5502 5490 5479 5468 5458 5448 5440 5431 5425 5421 5419 5420 5425 5432 5441 5453 5466 5479 5489 5501 5511
5651 5649 5646 5642 5638 5635 5630 5625 5619 5614 5606 5597 5590 5585 5578 5573 5566 5558 5552 5542 5531 5518 5506 5496 5484 5472 5462 5454 5446 5437 5430 5425 5421 5421 5423 5427 5432 5438 5447 5458 5470 5480 5491 5501
5643 5642 5641 5635 5632 5628 5624 5618 5614 5609 5603 5593 5583 5583 5574 5569 5562 5554 5546 5537 5524 5511 5501 5491 5479 5467 5458 5449 5442 5436 5430 5425 5423 5422 5424 5427 5431 5436 5443 5452 5464 5474 5483 5492
5637 5634 5632 5629 5625 5621 5617 5613 5609 5604 5598 5591 5581 5580 5570 5565 5558 5550 5543 5531 5520 5508 5497 5486 5474 5465 5454 5446 5439 5433 5430 5425 5423 5423 5424 5427 5430 5433 5439 5448 5459 5468 5476 5485
5630 5628 5624 5621 5620 5614 5610 5607 5603 5598 5593 5588 5577 5571 5565 5561 5555 5547 5539 5528 5519 5507 5496 5484 5473 5463 5453 5443 5437 5431 5427 5426 5424 5423 5424 5426 5428 5432 5437 5445 5453 5462 5470 5479
5623 5622 5617 5615 5611 5607 5604 5601 5597 5594 5588 5582 5574 5567 5565 5558 5552 5544 5538 5527 5518 5505 5495 5484 5474 5464 5452 5443 5435 5429 5426 5424 5423 5424 5425 5426 5428 5432 5437 5443 5451 5458 5466 5475
5616 5614 5611 5608 5603 5600 5598 5596 5590 5587 5582 5576 5573 5563 5559 5554 5549 5543 5537 5526 5517 5505 5495 5486 5476 5467 5455 5444 5437 5432 5425 5423 5422 5421 5422 5424 5427 5432 5437 5442 5449 5456 5464 5471
5608 5605 5603 5602 5596 5593 5592 5589 5585 5582 5577 5572 5566 5562 5555 5551 5547 5541 5536 5527 5518 5506 5498 5488 5478 5471 5460 5450 5442 5434 5429 5424 5420 5420 5421 5423 5426 5430 5436 5442 5448 5454 5461 5468
5600 5596 5594 5594 5590 5586 5587 5583 5579 5577 5572 5568 5563 5557 5552 5549 5544 5541 5534 5527 5519 5509 5500 5491 5482 5475 5466 5456 5448 5439 5432 5425 5424 5421 5420 5423 5426 5431 5435 5441 5447 5452 5459 5466
5592 5588 5585 5584 5582 5581 5580 5575 5571 5570 5567 5562 5559 5554 5550 5545 5541 5539 5533 5526 5520 5511 5502 5494 5485 5478 5470 5463 5455 5447 5438 5432 5429 5426 5424 5425 5427 5431 5436 5440 5446 5452 5459 5465
5584 5580 5577 5575 5573 5575 5574 5567 5564 5562 5564 5556 5554 5550 5547 5543 5538 5536 5532 5525 5521 5514 5507 5499 5490 5484 5475 5469 5463 5456 5449 5442 5436 5434 5431 5430 5431 5433 5438 5445 5451 5458 5464 5468
5577 5574 5571 5567 5564 5565 5565 5560 5557 5554 5556 5552 5549 5546 5544 5540 5536 5533 5531 5525 5520 5515 5510 5503 5495 5488 5482 5474 5469 5465 5459 5454 5449 5445 5443 5440 5440 5442 5445 5450 5455 5459 5463 5467
5569 5565 5563 5559 5555 5558 5556 5552 5549 5547 5548 5545 5543 5541 5539 5536 5533 5530 5528 5524 5520 5516 5512 5507 5499 5493 5487 5483 5476 5472 5467 5463 5459 5456 5453 5452 5452 5452 5453 5457 5461 5465 5467 5473
5561 5556 5556 5552 5548 5548 5545 5543 5541 5538 5536 5537 5537 5535 5533 5532 5529 5526 5525 5523 5519 5516 5513 5509 5504 5499 5493 5488 5484 5480 5476 5473 5470 5467 5465 5463 5462 5462 5463 5465 5469 5473 5478 5483
5552 5551 5546 5544 5544 5538 5533 5532 5530 5527 5527 5529 5529 5528 5528 5527 5525 5523 5521 5520 5518 5515 5513 5510 5507 5503 5499 5495 5491 5487 5484 5482 5479 5477 5475 5474 5474 5474 5474 5476 5480 5484 5488 5492
5545 5542 5537 5533 5539 5528 5525 5524 5522 5518 5517 5519 5521 5520 5521 5521 5520 5519 5517 5516 5515 5514 5512 5511 5508 5506 5504 5500 5498 5495 5493 5490 5489 5487 5486 5485 5486 5486 5487 5488 5490 5492 5495 5498
5539 5532 5527 5526 5523 5518 5519 5514 5510 5507 5507 5511 5513 5513 5513 5514 5514 5514 5512 5513 5513 5512 5511 5511 5510 5508 5507 5505 5503 5502 5501 5499 5497 5495 5495 5495 5495 5495 5497 5498 5499 5501 5502 5504
5529 5524 5520 5515 5514 5508 5510 5504 5501 5501 5501 5502 5503 5504 5504 5506 5507 5508 5507 5509 5509 5509 5510 5510 5511 5510 5509 5508 5507 5506 5506 5506 5505 5504 5503 5503 5503 5503 5503 5503 5505 5506 5508 5510